[[{"header":{"parameterUnit":"m.s-1","parameterCategory":1,"la1":30.2991,"la2":30.254,"lo1":-89.0895,"lo2":-89.0444,"dy":0.0017,"dx":0.0017,"nx":28,"ny":28,"refTime":"2025-08-26T03:00:00:Z","depth":0,"parameterNumber":2,"parameterNumberName":"U-component_of_WINDS"},"data":[0,0,0,0,0,0,0,0,0,0,0,0,0,0,0,0,0,0,0,0,0,0,0,0,0,0,0,0,0,0,0,0,0,0,0,0,0,0,0,0,0,0,0,0,0,0,0,0,0,0,0,0,0,0,0,0,0,0,-0.8296,-0.8295,0,-0.8216,-0.8215,-0.8214,-0.8113,-0.8112,-0.811,-0.8109,-0.8027,-0.8026,-0.8026,0,0,0,0,0,0,0,0,0,0,0,0,0,-0.8366,-0.8365,-0.8296,-0.8295,-0.8294,-0.8216,-0.8215,-0.8214,-0.8114,-0.8112,-0.811,-0.8108,-0.8027,-0.8026,-0.8026,0,0,0,0,0,0,0,0,0,0,0,0,0,-0.8315,-0.8365,-0.8296,-0.8235,-0.8229,-0.8216,-0.8215,-0.8213,-0.8114,-0.8112,-0.8109,-0.8107,-0.8027,-0.8026,-0.8025,-0.8067,0,0,-0.8022,-0.8022,0,0,0,0,0,0,0,0,-0.8318,-0.8313,-0.8245,-0.8239,-0.8232,-0.8172,-0.8209,-0.8164,-0.8115,-0.8158,-0.8109,-0.8106,-0.8077,-0.8072,-0.8062,-0.8063,-0.806,-0.8022,-0.8022,-0.8021,-0.8021,0,0,0,0,0,0,0,-0.8322,-0.8316,-0.8264,-0.8244,-0.8236,-0.8212,-0.8202,-0.82,-0.8132,-0.8154,-0.8146,-0.8138,-0.8073,-0.8063,-0.806,-0.8058,-0.8022,-0.8021,-0.8021,-0.802,-0.8092,-0.8094,0,0,0,0,0,0,-0.8335,-0.8319,-0.8267,-0.8262,-0.827,-0.8213,-0.8202,-0.8194,-0.8132,-0.812,-0.814,-0.8134,-0.8066,-0.8061,-0.8056,-0.8102,-0.8021,-0.802,-0.802,-0.809,-0.8093,-0.8095,0,0,0,0,0,0,-0.8336,-0.8331,-0.827,-0.8289,-0.8279,-0.8214,-0.8206,-0.8194,-0.8183,-0.8121,-0.8109,-0.8143,-0.8064,-0.8058,-0.8066,-0.8098,-0.802,-0.8019,-0.8087,-0.809,-0.8094,-0.8194,0,0,0,0,0,0,-0.8339,-0.8332,-0.8347,-0.829,-0.8279,-0.8281,-0.8208,-0.8194,-0.8182,-0.8173,-0.812,-0.8109,-0.8062,-0.8068,-0.8065,-0.8095,-0.8018,-0.8083,-0.8088,-0.8093,-0.8188,-0.8201,-0.8212,0,0,0,0,0,-0.8342,-0.8378,-0.8348,-0.8342,-0.8295,-0.8283,-0.8276,-0.8221,-0.8185,-0.8199,-0.816,-0.8111,-0.8095,-0.8069,-0.8065,-0.8096,-0.8081,-0.8087,-0.8092,-0.8182,-0.8198,-0.8212,0,0,0,0,0,0,-0.844,-0.8369,-0.8335,-0.8354,-0.8325,-0.8266,-0.8282,-0.8239,-0.822,-0.8212,-0.8144,-0.8134,-0.815,-0.8123,-0.8096,-0.8134,-0.8081,-0.8086,-0.8151,-0.8165,-0.8178,-0.8184,-0.8017,0,0,0,0,0,-0.8463,-0.8459,-0.8397,-0.842,-0.8407,-0.8348,-0.834,-0.83,-0.8267,-0.8255,-0.8215,-0.8186,-0.8175,-0.8168,-0.8154,-0.8183,-0.8171,-0.8203,-0.8215,-0.8225,-0.8231,-0.8246,-0.826,-0.8114,-0.8114,-0.8114,0,0,-0.8512,-0.8473,-0.8474,-0.8438,-0.8411,-0.8409,-0.8338,-0.8337,-0.8335,-0.8254,-0.826,-0.8231,-0.8194,-0.8213,-0.8219,-0.8191,-0.8268,-0.8233,-0.8241,-0.8241,-0.8253,-0.8267,-0.828,-0.8118,-0.8117,-0.8117,0,0,-0.8601,-0.857,-0.8586,-0.8561,-0.8521,-0.8482,-0.8486,-0.8433,-0.8411,-0.8415,-0.8355,-0.8352,-0.8333,-0.831,-0.8296,-0.8378,-0.8333,-0.8375,-0.844,-0.8455,-0.8467,-0.8477,-0.8507,-0.8519,-0.8381,-0.8381,-0.8381,0,-0.8667,-0.866,-0.86,-0.8604,-0.8591,-0.8518,-0.8535,-0.8513,-0.8471,-0.8464,-0.8433,-0.841,-0.8379,-0.8393,-0.8414,-0.8404,-0.8408,-0.8381,-0.847,-0.8479,-0.8488,-0.8516,-0.8528,-0.8387,-0.8386,-0.8385,-0.8385,0,-0.8744,-0.874,-0.8758,-0.872,-0.8708,-0.8719,-0.8662,-0.8658,-0.8619,-0.8584,-0.859,-0.8552,-0.853,-0.853,-0.8492,-0.8539,-0.8523,-0.8482,-0.8428,-0.8508,-0.8534,-0.8544,-0.8394,-0.8392,-0.8391,-0.8389,0,0,-0.889,-0.882,-0.8828,-0.881,-0.8762,-0.8759,-0.8767,-0.8745,-0.8744,-0.8718,-0.8724,-0.8711,-0.8673,-0.8657,-0.8616,-0.863,-0.87,-0.8587,-0.8586,-0.8611,-0.8752,-0.8783,-0.8797,-0.867,-0.8672,-0.8673,-0.8755,0,-0.897,-0.8979,-0.8926,-0.895,-0.8947,-0.8879,-0.8886,-0.8859,-0.8826,-0.8819,-0.8783,-0.8776,-0.8726,-0.8716,-0.8727,-0.8689,-0.8728,-0.8683,-0.8676,-0.8676,-0.8688,-0.881,-0.8843,-0.8922,-0.8765,-0.8766,-0.8767,0,-0.9064,-0.9044,-0.9067,-0.902,-0.9017,-0.9024,-0.9001,-0.8995,-0.8963,-0.8939,-0.8922,-0.8876,-0.8881,-0.883,-0.8838,-0.8809,-0.8803,-0.8784,-0.8786,-0.8784,-0.8727,-0.8812,-0.8946,-0.8958,-0.8783,-0.8781,-0.878,0,-0.917,-0.9149,-0.9161,-0.9148,-0.9092,-0.91,-0.9077,-0.9042,-0.9033,-0.9014,-0.9008,-0.8989,-0.8979,-0.8967,-0.8917,-0.8883,-0.8932,-0.8875,-0.8912,-0.8914,-0.8925,-0.8925,-0.9061,-0.8921,-0.8921,-0.8921,-0.892,0,-0.9265,-0.9283,-0.9208,-0.9215,-0.9233,-0.9174,-0.9193,-0.9164,-0.9134,-0.9136,-0.9076,-0.9079,-0.9012,-0.9008,-0.897,-0.8983,-0.8979,-0.896,-0.895,-0.8966,-0.8969,-0.8961,-0.8955,-0.8924,-0.8923,-0.8922,-0.8922,0,-0.9387,-0.9337,-0.9346,-0.9293,-0.9281,-0.9296,-0.9252,-0.9257,-0.9222,-0.9224,-0.9222,-0.9166,-0.9158,-0.9107,-0.9088,-0.9062,-0.909,-0.9069,-0.9101,-0.9095,-0.9135,-0.9133,-0.9272,-0.9288,-0.9137,-0.9139,-0.914,0,-0.9451,-0.9463,-0.9412,-0.9409,-0.9389,-0.9384,-0.9375,-0.9317,-0.9311,-0.9276,-0.9286,-0.9274,-0.9261,-0.9252,-0.921,-0.9196,-0.9174,-0.9224,-0.9171,-0.9188,-0.9176,-0.9176,-0.9178,-0.9235,-0.9237,-0.9238,-0.924,0,-0.9571,-0.9546,-0.9535,-0.9517,-0.9508,-0.949,-0.9469,-0.947,-0.9406,-0.9402,-0.9394,-0.9384,-0.9365,-0.9354,-0.9332,-0.931,-0.9265,-0.9257,-0.9265,-0.9282,-0.9301,-0.9292,-0.9133,-0.9254,-0.9252,-0.9251,-0.9251,-0.925,-0.9666,-0.9674,-0.964,-0.9631,-0.9609,-0.9591,-0.9594,-0.956,-0.9551,-0.9531,-0.9498,-0.9495,-0.9464,-0.9431,-0.9413,-0.941,-0.9384,-0.9395,-0.9398,-0.9402,-0.9411,-0.9301,-0.9406,-0.9405,-0.9405,-0.9404,-0.9404,0,-0.9783,-0.9759,-0.9751,-0.9723,-0.9717,-0.9675,-0.965,-0.9648,-0.9645,-0.962,-0.9609,-0.9601,-0.9591,-0.9549,-0.9534,-0.9541,-0.952,-0.9539,-0.9538,-0.9534,-0.9435,-0.943,-0.9556,-0.9556,-0.9556,-0.9556,-0.9556,-0.9556,-0.9844,-0.9856,-0.9828,-0.983,-0.9805,-0.9801,-0.9791,-0.9775,-0.9755,-0.9748,-0.9739,-0.9712,-0.9681,-0.9664,-0.9654,-0.9642,-0.964,-0.9666,-0.9647,-0.9555,-0.9541,-0.9527,-0.9522,-0.9666,-0.9666,-0.9747,-0.9748,-0.9748]},{"header":{"parameterUnit":"m.s-1","parameterCategory":1,"la1":30.2991,"la2":30.254,"lo1":-89.0895,"lo2":-89.0444,"dy":0.0017,"dx":0.0017,"nx":28,"ny":28,"refTime":"2025-08-26T03:00:00:Z","depth":0,"parameterNumber":3,"parameterNumberName":"V-component_of_WINDS"},"data":[0,0,0,0,0,0,0,0,0,0,0,0,0,0,0,0,0,0,0,0,0,0,0,0,0,0,0,0,0,0,0,0,0,0,0,0,0,0,0,0,0,0,0,0,0,0,0,0,0,0,0,0,0,0,0,0,0,0,2.6436,2.6437,0,2.6475,2.6475,2.6476,2.6517,2.6518,2.6518,2.6519,2.6555,2.6555,2.6555,0,0,0,0,0,0,0,0,0,0,0,0,0,2.6395,2.6396,2.6436,2.6437,2.6437,2.6475,2.6475,2.6476,2.6517,2.6518,2.6518,2.6519,2.6555,2.6555,2.6556,0,0,0,0,0,0,0,0,0,0,0,0,0,2.6421,2.6396,2.6436,2.6462,2.6465,2.6475,2.6475,2.6476,2.6517,2.6518,2.6519,2.6519,2.6554,2.6555,2.6556,2.6541,0,0,2.6557,2.6558,0,0,0,0,0,0,0,0,2.642,2.6422,2.6458,2.6461,2.6464,2.6492,2.6474,2.6498,2.6517,2.6497,2.6519,2.652,2.6533,2.6535,2.654,2.6543,2.6544,2.6557,2.6558,2.6558,2.6558,0,0,0,0,0,0,0,2.6418,2.6421,2.6451,2.6459,2.6462,2.6471,2.6476,2.6479,2.6509,2.6499,2.6502,2.6506,2.6535,2.654,2.6542,2.6545,2.6557,2.6558,2.6558,2.6559,2.6535,2.6535,0,0,0,0,0,0,2.6412,2.6419,2.645,2.6453,2.6444,2.6471,2.6476,2.6482,2.6509,2.6515,2.6505,2.6508,2.6538,2.6541,2.6543,2.6526,2.6558,2.6559,2.6559,2.6536,2.6535,2.6534,0,0,0,0,0,0,2.6411,2.6415,2.6449,2.6437,2.6442,2.6471,2.6477,2.6482,2.6488,2.6514,2.652,2.6505,2.6539,2.6542,2.6541,2.6528,2.6559,2.6559,2.6538,2.6536,2.6535,2.6493,0,0,0,0,0,0,2.641,2.6414,2.641,2.6436,2.6442,2.6447,2.6476,2.6482,2.6489,2.6493,2.6516,2.652,2.654,2.654,2.6542,2.6529,2.656,2.6539,2.6537,2.6535,2.6496,2.6491,2.6486,0,0,0,0,0,2.6408,2.6396,2.6409,2.6413,2.6438,2.6446,2.6449,2.6473,2.6488,2.6483,2.65,2.652,2.653,2.654,2.6542,2.653,2.654,2.6537,2.6535,2.6498,2.6492,2.6486,0,0,0,0,0,0,2.6366,2.64,2.6415,2.6412,2.6426,2.6453,2.6448,2.6466,2.6476,2.6479,2.6507,2.6512,2.6507,2.6519,2.6529,2.6516,2.6537,2.6536,2.6508,2.6503,2.6498,2.6494,2.656,0,0,0,0,0,2.6357,2.6362,2.6391,2.6385,2.6392,2.6418,2.6423,2.644,2.6456,2.6462,2.6479,2.6492,2.6498,2.6501,2.6509,2.6499,2.6503,2.6491,2.6486,2.6482,2.648,2.6473,2.6468,2.6527,2.6527,2.6527,0,0,2.6337,2.6356,2.6357,2.6377,2.639,2.6393,2.6423,2.6426,2.6428,2.6462,2.6461,2.6475,2.6491,2.6485,2.6483,2.6494,2.6464,2.648,2.6476,2.6476,2.647,2.6465,2.646,2.6526,2.6526,2.6526,0,0,2.6301,2.6317,2.6313,2.6326,2.6346,2.6364,2.6363,2.6387,2.6397,2.6398,2.6423,2.6426,2.6436,2.6447,2.6453,2.6421,2.6439,2.6423,2.6396,2.639,2.6385,2.6381,2.6368,2.6363,2.6421,2.6421,2.6421,0,2.6273,2.628,2.6308,2.6309,2.6316,2.6349,2.6343,2.6354,2.6375,2.6378,2.6391,2.6404,2.6418,2.6414,2.6406,2.6411,2.6409,2.6419,2.6384,2.638,2.6377,2.6364,2.6359,2.6419,2.6419,2.6419,2.6419,0,2.6244,2.6248,2.6243,2.6262,2.6269,2.6267,2.6293,2.6297,2.6313,2.6329,2.6329,2.6346,2.6357,2.6358,2.6374,2.6356,2.6362,2.6379,2.64,2.6368,2.6357,2.6352,2.6415,2.6416,2.6417,2.6417,0,0,2.6181,2.6217,2.6214,2.6223,2.6247,2.625,2.6249,2.6261,2.6262,2.6275,2.6273,2.6282,2.6298,2.6305,2.6323,2.6318,2.6289,2.6335,2.6336,2.6324,2.6267,2.6251,2.6246,2.6302,2.6301,2.63,2.6264,0,2.6148,2.6149,2.6174,2.6167,2.617,2.6201,2.62,2.6214,2.6229,2.6233,2.625,2.6254,2.6276,2.628,2.6277,2.6293,2.6277,2.6296,2.6298,2.6298,2.629,2.624,2.6224,2.6189,2.626,2.626,2.6259,0,2.6109,2.6121,2.6114,2.6138,2.614,2.6139,2.615,2.6155,2.6171,2.6182,2.619,2.6211,2.621,2.6232,2.623,2.6242,2.6245,2.6253,2.6252,2.6251,2.6274,2.6235,2.6179,2.6173,2.6253,2.6253,2.6254,0,2.6061,2.6075,2.6073,2.608,2.6108,2.6106,2.6117,2.6134,2.6139,2.6149,2.6152,2.6162,2.6167,2.6173,2.6195,2.621,2.619,2.6214,2.6197,2.6196,2.6189,2.6189,2.613,2.6195,2.6195,2.6195,2.6195,0,2.602,2.6014,2.6051,2.6049,2.6043,2.6072,2.6065,2.6079,2.6094,2.6094,2.6122,2.6122,2.6152,2.6155,2.6172,2.6166,2.6169,2.6176,2.6181,2.6172,2.6171,2.6172,2.6174,2.6194,2.6194,2.6194,2.6195,0,2.5964,2.5989,2.5988,2.6015,2.6022,2.6016,2.6038,2.6037,2.6054,2.6054,2.6056,2.6082,2.6086,2.611,2.612,2.6131,2.6118,2.6129,2.6113,2.6115,2.6095,2.6096,2.6033,2.6026,2.6098,2.6097,2.6097,0,2.5935,2.5931,2.5958,2.596,2.5971,2.5975,2.598,2.6008,2.6012,2.603,2.6026,2.6033,2.604,2.6045,2.6064,2.6071,2.608,2.6058,2.6081,2.6073,2.6077,2.6075,2.6074,2.6052,2.6051,2.605,2.605,0,2.5879,2.5892,2.5899,2.591,2.5915,2.5925,2.5937,2.5937,2.5968,2.5971,2.5976,2.5982,2.5992,2.5997,2.6008,2.6018,2.6038,2.6043,2.6038,2.6028,2.6018,2.6021,2.6096,2.6043,2.6044,2.6044,2.6045,2.6045,2.5834,2.5831,2.5849,2.5856,2.5868,2.5878,2.5877,2.5895,2.59,2.5911,2.5927,2.593,2.5945,2.5961,2.597,2.5971,2.5983,2.5978,2.5976,2.5973,2.5968,2.6021,2.5974,2.5974,2.5974,2.5974,2.5975,0,2.5777,2.579,2.5796,2.5812,2.5816,2.5837,2.5851,2.5853,2.5855,2.5868,2.5874,2.5879,2.5885,2.5905,2.5912,2.5909,2.5918,2.591,2.5909,2.591,2.5959,2.596,2.5902,2.5902,2.5902,2.5902,2.5902,2.5902,2.5748,2.5744,2.5758,2.576,2.5774,2.5777,2.5782,2.5791,2.5802,2.5806,2.5811,2.5825,2.5841,2.5849,2.5855,2.586,2.586,2.5848,2.5856,2.59,2.5907,2.5914,2.5915,2.5849,2.5849,2.5808,2.5807,2.5807]}]]